Regional Weather Roundup
Issued by NWS

Home | Current Version | Previous Version | Text Only | Print | Product List | Glossary Off
Versions: 1 2 3 4 5 6 7 8 9 10 11 12 13 14 15 16 17 18 19 20 21 22 23 24 25 26 27 28 29 30 31 32 33 34 35 36 37 38 39 40 41 42 43 44 45 46 47 48 49 50

685
ASUS43 KIND 032009
RWRIN

WEATHER ROUNDUP FOR INDIANA
NATIONAL WEATHER SERVICE INDIANAPOLIS IN
300 PM EST SAT DEC 03 2016

NOTE: "FAIR" INDICATES FEW OR NO CLOUDS BELOW 12,000 FEET WITH NO
SIGNIFICANT WEATHER AND/OR OBSTRUCTIONS TO VISIBILITY.

* - STATION DOES NOT REPORT WEATHER SUCH AS PRECIPITATION OR FOG.

+ - STATION NOT QUALITY CONTROLLED BY THE NATIONAL WEATHER SERVICE.
    USE DATA WITH CAUTION...ESPECIALLY DEWPOINT AND RELATIVE
    HUMIDITY OBSERVATIONS.

INZ001>003-010>013-019-020-032100-
NORTHWEST INDIANA

CITY           SKY/WX    TMP DP  RH WIND       PRES   REMARKS
GARY /AIRPORT/ CLOUDY    36  25  64 SW7       30.35F
KNOX *+        CLOUDY    34   5  29 SW5       30.33F WCI  30
LA PORTE +     CLOUDY    38  30  73 SW7       30.32F
MICHIGAN CITY+ CLOUDY    36  27  69 W6        30.33S
MONTICELLO +   CLOUDY    35  22  60 CALM      30.33S
RENSSELAER +     N/A     36  30  80 W7        30.35R
VALPARAISO     CLOUDY    36  23  59 SW9       30.34R

$$

LMZ046-743>745-032100-
SOUTHERN LAKE MICHIGAN

STATION/POSITION TIME  TEMP    WIND        PRES    WAVE
                       AIR SEA DIR/SP/G            HT
                 (UTC) (F)     (DEG/KT/KT) (MB)    (FT)
BURNS HARBOR     2002   36     250/  4/ 11 1027.4
MICHIGAN CITY    1940   35     240/ 10/ 12   N/A

$$

INZ004-005-014>016-021>024-032100-
NORTH CENTRAL INDIANA

CITY           SKY/WX    TMP DP  RH WIND       PRES   REMARKS
ELKHART        CLOUDY    37  25  60 SW6       30.31F
GOSHEN         CLOUDY    36  24  62 W7        30.31F
LOGANSPORT +   CLOUDY    36  27  69 CALM      30.33F
PERU/GRISSOM   CLOUDY    36  28  72 W6        30.30F
ROCHESTER +    CLOUDY    37  30  75 W3        30.32F
SOUTH BEND     CLOUDY    36  25  64 NW7       30.31F
WARSAW +       CLOUDY    36  23  60 SW6       30.32F

$$

INZ006>009-017-018-025>027-032100-
NORTHEAST INDIANA

CITY           SKY/WX    TMP DP  RH WIND       PRES   REMARKS
ANGOLA *+      CLOUDY    36  27  69 W5        30.30S
AUBURN +       CLOUDY    36  27  69 W5        30.31F
FORT WAYNE     CLOUDY    37  25  61 W8        30.33S
HUNTINGTON +   CLOUDY    36  25  66 W5        30.32F
KENDALLVILLE + CLOUDY    36  26  68 W6        30.30F

$$

INZ028-029-035-036-043>045-051>053-032100-
WEST CENTRAL INDIANA

CITY           SKY/WX    TMP DP  RH WIND       PRES   REMARKS
CRAWFORDSVL +  CLOUDY    36  28  75 W9        30.33F
GREENCASTLE +  CLOUDY    37  30  75 W3        30.33F
LAFAYETTE      CLOUDY    36  28  73 W7        30.34F
TERRE HAUTE    CLOUDY    40  28  62 NW6       30.33F

$$

INZ030>032-037>040-046>048-054>057-064-065-032100-
CENTRAL INDIANA

CITY           SKY/WX    TMP DP  RH WIND       PRES   REMARKS
ANDERSON       CLOUDY    37  28  70 W12       30.33
CP ATTERBURY + PTSUNNY   41  30  65 NW8       30.33F
COLUMBUS       PTSUNNY   39  30  70 W7        30.33F
FISHERS *+     CLOUDY    36  30  80 W8        30.33
FRANKFORT +    CLOUDY    38  30  72 W8        30.34F
GREENWOOD *+   CLOUDY    39  30  69 W8        30.34F
INDIANAPOLIS   CLOUDY    39  27  62 W6        30.32F
-EAGLE CREEK   CLOUDY    39  27  62 W8        30.32F
KOKOMO +       CLOUDY    37  27  67 W5        30.33S
MARION +       CLOUDY    37  29  73 W7        30.32F
MT COMFORT *+  CLOUDY    37  27  65 W9        30.33S
SHELBYVILLE    CLOUDY    39  27  62 W10       30.32F
ZIONSVILLE +   CLOUDY    35  28  75 W8        30.33F WCI  28

$$

INZ033-034-041-042-049-050-058-059-032100-
EAST CENTRAL INDIANA

CITY           SKY/WX    TMP DP  RH WIND       PRES   REMARKS
MUNCIE         CLOUDY    39  29  67 W7        30.31F

$$

INZ060-061-067>069-081>083-085>088-032100-
SOUTHWEST INDIANA

CITY           SKY/WX    TMP DP  RH WIND       PRES   REMARKS
EVANSVILLE     MOSUNNY   46  29  51 N6        30.32F
HUNTINGBURG *+ PTSUNNY   43  28  55 NE5       30.32F
WASHINGTON +   CLOUDY    42  32  67 N5        30.33S

$$

INZ062-063-066-070>080-084-089>092-032100-
SOUTH CENTRAL AND SOUTHEAST INDIANA

CITY           SKY/WX    TMP DP  RH WIND       PRES   REMARKS
BLOOMINGTON    CLOUDY    41  27  57 N3        30.31F
MADISON *+     PTSUNNY   41  28  60 CALM      30.33F
NORTH VERNON + CLOUDY    41  36  81 NW5       30.33F
SEYMOUR +      CLOUDY    43  28  56 NW6       30.33F

$$





USA.gov is the U.S. government's official web portal to all federal, state and local government web resources and services.